San Jose, Costa Rica

7:24 AM CST on May 27, 2017 (GMT -0600)
Juan Santamaria International

Weather History for MROC - February, 2014

Change the Weather History Date:

Saturday, February 15, 2014

  Actual Average Record
Temperature  
Mean Temperature 77 °F -  
Max Temperature 86 °F 82 °F 87 °F (2003)
Min Temperature 68 °F 64 °F 59 °F (2017)
Cooling Degree Days 12    
Growing Degree Days 27 (Base 50)    
Moisture  
Dew Point 56 °F    
Average Humidity 52    
Maximum Humidity 78    
Minimum Humidity 22    
Precipitation  
Precipitation 0.00 in 0.02 in - ()
Sea Level Pressure  
Sea Level Pressure 29.98 in    
Wind  
Wind Speed 11 mph ()    
Max Wind Speed 24 mph    
Max Gust Speed 31 mph    
Visibility 8.1 miles    
Events      
Averages and records for this station are not official NWS values.
T = Trace of Precipitation, MM = Missing Value Source: Averaged Metar Reports

Daily Weather History Graph

Daily Weather History Graph

Search for Another Location

Airport or City:

Trip Planner

Search our weather history database for the weather conditions in past years. The results will help you decide how hot, cold, wet, or windy it might be!

Date:

Astronomy

Feb. 15, 2014 Rise Set
Actual Time 5:56 AM CST 5:45 PM CST
Civil Twilight 5:35 AM CST 6:07 PM CST
Nautical Twilight 5:10 AM CST 6:31 PM CST
Astronomical Twilight 4:45 AM CST 6:56 PM CST
Moon 6:24 PM CST (2/15) 6:10 AM CST (2/15)
Length of Visible Light 12h 31m
Length of Day
11h 48m
Waxing Gibbous, 99% of the Moon is Illuminated
Feb 15
Waxing Gibbous
Feb 22
Last Quarter
Mar 1
New
Mar 8
First Quarter
Mar 16
Full

Hourly Weather History & Observations

Time (CST) Temp. Heat Index Dew Point Humidity Pressure Visibility Wind Dir Wind Speed Gust Speed Precip Events Conditions
12:00 AM 69 °F - 59 °F 61% 29.87 in 12 mi NE 9.2 mph - -  
12:00 AM 69.8 °F - 59.0 °F 68% 30.03 in - NE 9.2 mph - N/A   Clear
1:00 AM 69.8 °F - 59.0 °F 68% 30.02 in - ENE 8.1 mph - N/A   Clear
2:00 AM 68.0 °F - 59.0 °F 73% 30.01 in - ENE 6.9 mph - N/A   Clear
3:00 AM 70 °F - 59 °F 60% 29.83 in 12 mi ESE 13.8 mph - -   Clear
3:00 AM 69.8 °F - 59.0 °F 68% 29.99 in - ESE 13.8 mph - N/A   Clear
4:00 AM 68.0 °F - 60.8 °F 78% 30.01 in - East 9.2 mph 20.7 mph N/A   Clear
5:00 AM 69.8 °F - 59.0 °F 68% 30.00 in - East 10.4 mph - N/A   Clear
6:00 AM 70 °F - - % 29.88 in 12 mi East 24.2 mph - -   Scattered Clouds
6:00 AM 69.8 °F - 57.2 °F 64% 30.02 in - North - - N/A   Scattered Clouds
7:00 AM 71.6 °F - 59.0 °F 64% 30.04 in 6.2 mi ESE 13.8 mph 26.5 mph N/A   Scattered Clouds
8:00 AM 73.4 °F - 59.0 °F 61% 30.06 in 6.2 mi East 17.3 mph 29.9 mph N/A   Scattered Clouds
9:00 AM 76 °F - 57 °F 41% 29.90 in 12 mi East 16.1 mph - -   Scattered Clouds
9:00 AM 77.0 °F - 57.2 °F 50% 30.07 in 6.2 mi East 16.1 mph 31.1 mph N/A   Scattered Clouds
10:00 AM 78.8 °F - 53.6 °F 42% 30.07 in 6.2 mi East 15.0 mph 31.1 mph N/A   Scattered Clouds
11:00 AM 82.4 °F - 51.8 °F 35% 30.05 in 6.2 mi East 11.5 mph 23.0 mph N/A   Partly Cloudy
12:00 PM 83 °F - 50 °F 22% 29.85 in 12 mi ENE 12.7 mph - -   Scattered Clouds
12:00 PM 82.4 °F - 50.0 °F 32% 30.04 in 6.2 mi ENE 12.7 mph 24.2 mph N/A   Partly Cloudy
1:00 PM 82.4 °F - 51.8 °F 35% 30.02 in 6.2 mi ENE 11.5 mph 23.0 mph N/A   Mostly Cloudy
2:00 PM 84.2 °F - 50.0 °F 30% 29.99 in 6.2 mi ENE 17.3 mph 28.8 mph N/A   Mostly Cloudy
3:00 PM 83 °F - 52 °F 23% 29.77 in 12 mi East 13.8 mph - -   Scattered Clouds
3:00 PM 84.2 °F - 51.8 °F 33% 29.97 in 6.2 mi East 13.8 mph - N/A   Scattered Clouds
4:00 PM 80.6 °F 80.5 °F 55.4 °F 42% 29.98 in 6.2 mi ENE 17.3 mph - N/A   Scattered Clouds
5:00 PM 78.8 °F - 55.4 °F 44% 29.99 in 6.2 mi ENE 15.0 mph - N/A   Mostly Cloudy
6:00 PM 74 °F - 55 °F 42% 29.84 in 12 mi ENE 19.6 mph - -   Scattered Clouds
6:00 PM 75.2 °F - 55.4 °F 50% 30.00 in 6.2 mi ENE 19.6 mph 31.1 mph N/A   Mostly Cloudy
7:00 PM 73.4 °F - 57.2 °F 57% 30.02 in 6.2 mi East 9.2 mph - N/A   Partly Cloudy
8:00 PM 71.6 °F - 55.4 °F 57% 30.05 in 6.2 mi East 13.8 mph 27.6 mph N/A   Partly Cloudy
9:00 PM 71 °F - 56 °F 50% 29.89 in 12 mi East 13.8 mph - -   Scattered Clouds
9:00 PM 69.8 °F - 57.2 °F 64% 30.06 in 6.2 mi East 13.8 mph 25.3 mph N/A   Partly Cloudy
10:00 PM 69.8 °F - 57.2 °F 64% 30.07 in 6.2 mi East 13.8 mph 25.3 mph N/A   Partly Cloudy
11:00 PM 69.8 °F - 57.2 °F 64% 30.06 in 6.2 mi East 15.0 mph 26.5 mph N/A   Partly Cloudy